User: anonymous   Login
Location: Eaton
(41.3139°N, 82.0207°W)
Time: 21:07:52
(UTC+00:00)
Language:

Meteor 1-4 Rocket - Orbit

View from above orbital plane
View from above orbital plane
View from above satellite
View from above satellite

Ground track
Ground track

The orbit data is extracted from the following two-line orbital elements,

1 04394U 70037B   21271.56030623  .00002594  00000-0  83446-4 0  9994
2 04394  81.2428 334.0064 0037862 169.0948 191.1119 15.31117724804366
Epoch (UTC): 28 September 2021 13:26:50
Eccentricity: 0.0037862
inclination: 81.2428°
perigee height: 446 km
apogee height: 498 km
right ascension of ascending node: 334.0064°
argument of perigee: 169.0948°
revolutions per day: 15.31117724
mean anomaly at epoch: 191.1119°
orbit number at epoch: 80436

The dashed part of the orbit path shows where the satellite is in the earth's shadow,  

DLR